Zurück zum Katalog

ATLAS 5 CENTAUR DEB

AktivHEO
NORAD 43965·DEBRIS·🇺🇸 United States

Gestartet Sep 17, 2014 von Cape Canaveral Space Force Station

Loading…

Nächste Überflüge (nächste 24 Stunden)

TLE

AktuellSource: Space-Track

Epoche: Sep 10, 2026, 09:15 UTC

1 43965U 14055U   26253.38577907 -.00000131  00000-0  00000+0 0  9991
2 43965  20.7682 116.1801 4845884 218.3979  94.5575  1.89965974 55656

Verfolge ATLAS 5 CENTAUR DEB in Echtzeit mit AllMySat

Download on the App Store